Weather History for CYYG - February, 2013

Change the Weather History Date:

Tuesday, February 19, 2013

  Actual Average Record
Temperature  
Mean Temperature 25 °F -  
Max Temperature 30 °F 30 °F 46 °F (2008)
Min Temperature 20 °F 16 °F 0 °F (2006)
Degree Days  
Heating Degree Days 40    
Moisture  
Dew Point 17 °F    
Average Humidity 72    
Maximum Humidity 80    
Minimum Humidity 56    
Precipitation  
Precipitation 0.00 in 0.12 in - ()
Sea Level Pressure  
Sea Level Pressure 29.77 in    
Wind  
Wind Speed 14 mph ()    
Max Wind Speed 22 mph    
Max Gust Speed 33 mph    
Visibility 15.0 miles    
Events Snow    
Averages and records for this station are not official NWS values.
T = Trace of Precipitation, MM = Missing Value Source: Averaged Metar Reports

Daily Weather History Graph

Daily Weather History Graph

Search for Another Location

Airport or City:

Trip Planner

Search our weather history database for the weather conditions in past years. The results will help you decide how hot, cold, wet, or windy it might be!

Date:

Astronomy

Feb. 19, 2013 Rise Set
Actual Time 7:08 AM AST 5:44 PM AST
Civil Twilight 6:38 AM AST 6:15 PM AST
Nautical Twilight 6:03 AM AST 6:50 PM AST
Astronomical Twilight 5:28 AM AST 7:24 PM AST
Moon 12:01 PM AST (2/19) 2:47 AM AST (2/19)
Length of Visible Light 11h 36m
Length of Day
10h 35m
Waxing Gibbous, 67% of the Moon is Illuminated
Feb 19
Waxing Gibbous
Feb 25
Full
Mar 4
Last Quarter
Mar 11
New
Mar 19
First Quarter

Hourly Weather History & Observations

Time (AST) Temp. Windchill Dew Point Humidity Pressure Visibility Wind Dir Wind Speed Gust Speed Precip Events Conditions
12:00 AM 23.0 °F 8.0 °F 15.8 °F 74% 29.39 in 15.0 mi West 20.7 mph 33.4 mph N/A Snow Low Drifting Snow
1:00 AM 23.0 °F 8.3 °F 15.8 °F 74% 29.43 in 15.0 mi West 19.6 mph 33.4 mph N/A Snow Low Drifting Snow
2:00 AM 22 °F - 15 °F 66% 29.47 in 15 mi West 19.6 mph - -   Partly Cloudy
2:00 AM 23.0 °F 7.6 °F 15.8 °F 74% 29.46 in 15.0 mi West 21.9 mph 31.1 mph N/A Snow Low Drifting Snow
4:00 AM 23.0 °F 8.0 °F 15.8 °F 74% 29.54 in 15.0 mi West 20.7 mph 33.4 mph N/A   Overcast
6:00 AM 21.2 °F 7.8 °F 15.8 °F 80% 29.63 in 15.0 mi West 15.0 mph 26.5 mph N/A Snow Low Drifting Snow
7:00 AM 21.2 °F 6.8 °F 14.0 °F 74% 29.67 in 15.0 mi West 17.3 mph 26.5 mph N/A   Partly Cloudy
8:00 AM 21 °F - 14 °F 65% 29.72 in 15 mi West 16.1 mph - - Snow Low Drifting Snow
8:00 AM 21.2 °F 6.8 °F 14.0 °F 74% 29.72 in 15.0 mi West 17.3 mph 25.3 mph N/A Snow Low Drifting Snow
9:00 AM 21.2 °F 7.8 °F 14.0 °F 74% 29.76 in 15.0 mi West 15.0 mph 28.8 mph N/A Snow Low Drifting Snow
10:00 AM 23.0 °F 10.6 °F 14.0 °F 68% 29.80 in 15.0 mi West 13.8 mph 28.8 mph N/A Snow Low Drifting Snow
11:00 AM 23.0 °F 9.6 °F 15.8 °F 74% 29.83 in 15.0 mi West 16.1 mph 27.6 mph N/A   Partly Cloudy
12:00 PM 24.8 °F 12.4 °F 15.8 °F 69% 29.85 in 15.0 mi West 15.0 mph 25.3 mph N/A   Partly Cloudy
1:00 PM 26.6 °F 14.3 °F 17.6 °F 69% 29.88 in 15.0 mi West 16.1 mph 25.3 mph N/A   Partly Cloudy
2:00 PM 29 °F - 19 °F 56% 29.90 in 15 mi West 12.7 mph - -   Scattered Clouds
3:00 PM 30.2 °F 20.8 °F 19.4 °F 64% 29.92 in 15.0 mi West 11.5 mph 19.6 mph N/A   Partly Cloudy
4:00 PM 30.2 °F 20.8 °F 21.2 °F 69% 29.96 in 15.0 mi West 11.5 mph - N/A   Partly Cloudy
5:00 PM 30.2 °F 21.9 °F 21.2 °F 69% 29.96 in 15.0 mi WNW 9.2 mph - N/A   Partly Cloudy
6:00 PM 28.4 °F 20.4 °F 21.2 °F 74% 29.99 in 15.0 mi West 8.1 mph - N/A   Partly Cloudy
7:00 PM 26.6 °F 18.2 °F 21.2 °F 80% 30.00 in 15.0 mi WSW 8.1 mph - N/A   Partly Cloudy
9:00 PM 26.6 °F 19.1 °F 21.2 °F 80% 30.00 in 15.0 mi WSW 6.9 mph - N/A   Scattered Clouds
10:00 PM 26.6 °F 20.0 °F 21.2 °F 80% 30.00 in 15.0 mi West 5.8 mph - N/A   Mostly Cloudy